User: anonymous   Login
Location: D�derode
(51.8092°N, 10.1065°E)
Time: 17:41:52
(UTC+00:00)
Language:

Cosmos 1812 - Orbit

View from above orbital plane
View from above orbital plane
View from above satellite
View from above satellite

Ground track
Ground track

The orbit data is extracted from the following two-line orbital elements,

1 17295U 87003A   21136.61172405  .00000390  00000-0  18682-4 0  9992
2 17295  82.5142 177.1504 0002697 187.7061 172.4131 15.15981138875165
Epoch (UTC): 16 May 2021 14:40:52
Eccentricity: 0.0002697
inclination: 82.5142°
perigee height: 516 km
apogee height: 520 km
right ascension of ascending node: 177.1504°
argument of perigee: 187.7061°
revolutions per day: 15.15981138
mean anomaly at epoch: 172.4131°
orbit number at epoch: 87516

The dashed part of the orbit path shows where the satellite is in the earth's shadow,  

DLR